Time,TemperatureF,DewpointF,PressureIn,WindDirection,WindDirectionDegrees,WindSpeedMPH,WindSpeedGustMPH,Humidity,HourlyPrecipIn,Conditions,Clouds,dailyrainin,SoftwareType,DateUTC
2013-06-30 00:04:00,72.5,26.6,24.86,WNW,283,10.0,-999.0,18,-99.99,,,-99.99,dwt +perl,2013-06-30 07:04:00,
2013-06-30 00:09:00,73.0,25.6,24.86,WNW,289,7.0,-999.0,17,-99.99,,,-99.99,dwt +perl,2013-06-30 07:09:00,
2013-06-30 00:14:00,73.3,25.9,24.86,West,276,11.0,-999.0,17,-99.99,,,-99.99,dwt +perl,2013-06-30 07:14:00,
2013-06-30 00:19:00,73.3,25.9,24.86,WNW,302,14.0,-999.0,17,-99.99,,,-99.99,dwt +perl,2013-06-30 07:19:00,
2013-06-30 00:24:00,73.6,23.1,24.86,WNW,295,12.0,-999.0,15,-99.99,,,-99.99,dwt +perl,2013-06-30 07:24:00,
2013-06-30 00:29:00,73.7,24.7,24.86,WNW,295,10.0,-999.0,16,-99.99,,,-99.99,dwt +perl,2013-06-30 07:29:00,
2013-06-30 00:34:00,74.1,20.1,24.86,WNW,295,11.0,-999.0,13,-99.99,,,-99.99,dwt +perl,2013-06-30 07:34:00,
2013-06-30 00:39:00,74.7,22.3,24.86,WNW,287,9.0,-999.0,14,-99.99,,,-99.99,dwt +perl,2013-06-30 07:39:00,
2013-06-30 00:44:00,74.7,22.3,24.86,NW,318,11.0,-999.0,14,-99.99,,,-99.99,dwt +perl,2013-06-30 07:44:00,
2013-06-30 00:49:00,75.3,17.2,24.86,NW,304,9.0,-999.0,11,-99.99,,,-99.99,dwt +perl,2013-06-30 07:49:00,
2013-06-30 00:54:00,75.8,17.5,24.86,NW,320,9.0,-999.0,11,-99.99,,,-99.99,dwt +perl,2013-06-30 07:54:00,
2013-06-30 00:59:00,76.4,18.0,24.86,NW,321,9.0,-999.0,11,-99.99,,,-99.99,dwt +perl,2013-06-30 07:59:00,
2013-06-30 01:04:00,76.5,15.9,24.86,NW,318,5.0,-999.0,10,-99.99,,,-99.99,dwt +perl,2013-06-30 08:04:00,
2013-06-30 01:14:00,76.9,16.2,24.86,North,350,5.0,-999.0,10,-99.99,,,-99.99,dwt +perl,2013-06-30 08:14:00,
2013-06-30 01:19:00,76.8,16.1,24.85,NW,317,9.0,-999.0,10,-99.99,,,-99.99,dwt +perl,2013-06-30 08:19:00,
2013-06-30 01:24:00,76.9,16.2,24.85,NW,320,9.0,-999.0,10,-99.99,,,-99.99,dwt +perl,2013-06-30 08:24:00,
2013-06-30 01:29:00,77.3,16.5,24.85,NNW,335,3.0,-999.0,10,-99.99,,,-99.99,dwt +perl,2013-06-30 08:29:00,
2013-06-30 01:34:00,77.4,16.6,24.85,NW,319,9.0,-999.0,10,-99.99,,,-99.99,dwt +perl,2013-06-30 08:34:00,
2013-06-30 01:39:00,77.3,16.5,24.85,NW,322,2.0,-999.0,10,-99.99,,,-99.99,dwt +perl,2013-06-30 08:39:00,
2013-06-30 01:44:00,77.0,16.3,24.85,NW,324,7.0,-999.0,10,-99.99,,,-99.99,dwt +perl,2013-06-30 08:44:00,
2013-06-30 01:49:00,76.9,16.2,24.85,North,349,2.0,-999.0,10,-99.99,,,-99.99,dwt +perl,2013-06-30 08:49:00,
2013-06-30 01:54:00,76.8,18.3,24.85,NNW,343,3.0,-999.0,11,-99.99,,,-99.99,dwt +perl,2013-06-30 08:54:00,
2013-06-30 01:59:00,76.8,16.1,24.85,NW,324,5.0,-999.0,10,-99.99,,,-99.99,dwt +perl,2013-06-30 08:59:00,
2013-06-30 02:04:00,76.8,18.3,24.85,NW,322,7.0,-999.0,11,-99.99,,,-99.99,dwt +perl,2013-06-30 09:04:00,
2013-06-30 02:14:00,77.1,16.4,24.85,NW,317,6.0,-999.0,10,-99.99,,,-99.99,dwt +perl,2013-06-30 09:14:00,
2013-06-30 02:19:00,77.1,16.4,24.84,NW,316,6.0,-999.0,10,-99.99,,,-99.99,dwt +perl,2013-06-30 09:19:00,
2013-06-30 02:24:00,77.4,16.6,24.84,NW,316,7.0,-999.0,10,-99.99,,,-99.99,dwt +perl,2013-06-30 09:24:00,
2013-06-30 02:29:00,77.6,18.9,24.84,NW,311,7.0,-999.0,11,-99.99,,,-99.99,dwt +perl,2013-06-30 09:29:00,
2013-06-30 02:34:00,77.8,21.1,24.84,NW,312,7.0,-999.0,12,-99.99,,,-99.99,dwt +perl,2013-06-30 09:34:00,
2013-06-30 02:39:00,77.8,19.1,24.84,NW,308,7.0,-999.0,11,-99.99,,,-99.99,dwt +perl,2013-06-30 09:39:00,
2013-06-30 02:44:00,78.1,21.4,24.84,NW,312,5.0,-999.0,12,-99.99,,,-99.99,dwt +perl,2013-06-30 09:44:00,
2013-06-30 02:49:00,78.2,19.4,24.84,NW,314,5.0,-999.0,11,-99.99,,,-99.99,dwt +perl,2013-06-30 09:49:00,
2013-06-30 02:54:00,78.1,21.4,24.84,NW,317,4.0,-999.0,12,-99.99,,,-99.99,dwt +perl,2013-06-30 09:54:00,
2013-06-30 02:59:00,77.9,21.2,24.83,NW,317,4.0,-999.0,12,-99.99,,,-99.99,dwt +perl,2013-06-30 09:59:00,
2013-06-30 03:04:00,78.2,19.4,24.83,NW,317,4.0,-999.0,11,-99.99,,,-99.99,dwt +perl,2013-06-30 10:04:00,
2013-06-30 03:09:00,78.0,21.3,24.83,NW,317,2.0,-999.0,12,-99.99,,,-99.99,dwt +perl,2013-06-30 10:09:00,
2013-06-30 03:14:00,78.1,21.4,24.83,NW,316,7.0,-999.0,12,-99.99,,,-99.99,dwt +perl,2013-06-30 10:14:00,
2013-06-30 03:19:00,78.1,21.4,24.83,NW,312,6.0,-999.0,12,-99.99,,,-99.99,dwt +perl,2013-06-30 10:19:00,
2013-06-30 03:24:00,78.2,19.4,24.83,NW,312,5.0,-999.0,11,-99.99,,,-99.99,dwt +perl,2013-06-30 10:24:00,
2013-06-30 03:29:00,78.1,21.4,24.83,NW,310,5.0,-999.0,12,-99.99,,,-99.99,dwt +perl,2013-06-30 10:29:00,
2013-06-30 03:34:00,77.9,21.2,24.83,WNW,295,5.0,-999.0,12,-99.99,,,-99.99,dwt +perl,2013-06-30 10:34:00,
2013-06-30 03:39:00,77.6,18.9,24.83,WNW,291,5.0,-999.0,11,-99.99,,,-99.99,dwt +perl,2013-06-30 10:39:00,
2013-06-30 03:44:00,77.3,18.7,24.83,WNW,291,5.0,-999.0,11,-99.99,,,-99.99,dwt +perl,2013-06-30 10:44:00,
2013-06-30 03:49:00,77.1,16.4,24.83,WNW,291,6.0,-999.0,10,-99.99,,,-99.99,dwt +perl,2013-06-30 10:49:00,
2013-06-30 03:54:00,76.8,16.1,24.83,WNW,291,5.0,-999.0,10,-99.99,,,-99.99,dwt +perl,2013-06-30 10:54:00,
2013-06-30 03:59:00,76.6,18.2,24.83,WNW,291,4.0,-999.0,11,-99.99,,,-99.99,dwt +perl,2013-06-30 10:59:00,
2013-06-30 04:04:00,77.0,22.4,24.82,WNW,291,4.0,-999.0,13,-99.99,,,-99.99,dwt +perl,2013-06-30 11:04:00,
2013-06-30 04:09:00,77.1,20.6,24.82,WNW,291,5.0,-999.0,12,-99.99,,,-99.99,dwt +perl,2013-06-30 11:09:00,
2013-06-30 04:14:00,77.2,22.5,24.82,WNW,291,4.0,-999.0,13,-99.99,,,-99.99,dwt +perl,2013-06-30 11:14:00,
2013-06-30 04:19:00,77.1,20.6,24.82,WNW,291,4.0,-999.0,12,-99.99,,,-99.99,dwt +perl,2013-06-30 11:19:00,
2013-06-30 04:24:00,77.0,18.5,24.82,WNW,291,6.0,-999.0,11,-99.99,,,-99.99,dwt +perl,2013-06-30 11:24:00,
2013-06-30 04:29:00,76.6,16.0,24.82,WNW,291,4.0,-999.0,10,-99.99,,,-99.99,dwt +perl,2013-06-30 11:29:00,
2013-06-30 04:34:00,76.6,20.2,24.82,WNW,291,5.0,-999.0,12,-99.99,,,-99.99,dwt +perl,2013-06-30 11:34:00,
2013-06-30 04:39:00,76.9,20.4,24.82,WNW,291,3.0,-999.0,12,-99.99,,,-99.99,dwt +perl,2013-06-30 11:39:00,
2013-06-30 04:44:00,77.1,20.6,24.82,WNW,291,5.0,-999.0,12,-99.99,,,-99.99,dwt +perl,2013-06-30 11:44:00,
2013-06-30 04:49:00,76.7,18.2,24.82,WNW,291,5.0,-999.0,11,-99.99,,,-99.99,dwt +perl,2013-06-30 11:49:00,
2013-06-30 04:54:00,76.5,18.1,24.82,WNW,291,5.0,-999.0,11,-99.99,,,-99.99,dwt +perl,2013-06-30 11:54:00,
2013-06-30 04:59:00,76.5,20.1,24.82,WNW,303,4.0,-999.0,12,-99.99,,,-99.99,dwt +perl,2013-06-30 11:59:00,
2013-06-30 05:04:00,76.5,20.1,24.82,WNW,303,4.0,-999.0,12,-99.99,,,-99.99,dwt +perl,2013-06-30 12:04:00,
2013-06-30 05:14:00,76.5,20.1,24.82,WNW,299,3.0,-999.0,12,-99.99,,,-99.99,dwt +perl,2013-06-30 12:14:00,
2013-06-30 05:19:00,76.6,18.2,24.82,WNW,300,3.0,-999.0,11,-99.99,,,-99.99,dwt +perl,2013-06-30 12:19:00,
2013-06-30 05:24:00,76.8,20.4,24.82,NW,305,4.0,-999.0,12,-99.99,,,-99.99,dwt +perl,2013-06-30 12:24:00,
2013-06-30 05:29:00,76.8,20.4,24.82,NW,305,0.0,-999.0,12,-99.99,,,-99.99,dwt +perl,2013-06-30 12:29:00,
2013-06-30 05:34:00,76.6,20.2,24.82,NW,305,1.0,-999.0,12,-99.99,,,-99.99,dwt +perl,2013-06-30 12:34:00,
2013-06-30 05:39:00,76.7,20.3,24.82,NW,305,0.0,-999.0,12,-99.99,,,-99.99,dwt +perl,2013-06-30 12:39:00,
2013-06-30 05:44:00,77.0,20.5,24.82,NW,305,0.0,-999.0,12,-99.99,,,-99.99,dwt +perl,2013-06-30 12:44:00,
2013-06-30 05:49:00,77.2,20.7,24.82,NW,305,1.0,-999.0,12,-99.99,,,-99.99,dwt +perl,2013-06-30 12:49:00,
2013-06-30 05:54:00,77.1,20.6,24.82,NW,305,1.0,-999.0,12,-99.99,,,-99.99,dwt +perl,2013-06-30 12:54:00,
2013-06-30 05:59:00,77.1,20.6,24.82,NW,305,0.0,-999.0,12,-99.99,,,-99.99,dwt +perl,2013-06-30 12:59:00,
2013-06-30 06:04:00,77.2,20.7,24.83,NW,305,0.0,-999.0,12,-99.99,,,-99.99,dwt +perl,2013-06-30 13:04:00,
2013-06-30 06:09:00,77.2,20.7,24.82,NW,305,0.0,-999.0,12,-99.99,,,-99.99,dwt +perl,2013-06-30 13:09:00,
2013-06-30 06:14:00,77.1,22.5,24.83,NW,305,0.0,-999.0,13,-99.99,,,-99.99,dwt +perl,2013-06-30 13:14:00,
2013-06-30 06:19:00,77.0,22.4,24.83,NW,305,0.0,-999.0,13,-99.99,,,-99.99,dwt +perl,2013-06-30 13:19:00,
2013-06-30 06:24:00,76.9,22.3,24.83,NW,305,1.0,-999.0,13,-99.99,,,-99.99,dwt +perl,2013-06-30 13:24:00,
2013-06-30 06:29:00,76.7,22.2,24.83,NW,305,1.0,-999.0,13,-99.99,,,-99.99,dwt +perl,2013-06-30 13:29:00,
2013-06-30 06:34:00,76.6,23.8,24.83,NW,305,2.0,-999.0,14,-99.99,,,-99.99,dwt +perl,2013-06-30 13:34:00,
2013-06-30 06:39:00,76.6,25.5,24.83,NW,313,2.0,-999.0,15,-99.99,,,-99.99,dwt +perl,2013-06-30 13:39:00,
2013-06-30 06:44:00,76.8,28.7,24.83,NW,317,2.0,-999.0,17,-99.99,,,-99.99,dwt +perl,2013-06-30 13:44:00,
2013-06-30 06:49:00,77.3,29.1,24.83,NW,317,1.0,-999.0,17,-99.99,,,-99.99,dwt +perl,2013-06-30 13:49:00,
2013-06-30 06:54:00,77.7,29.4,24.83,NW,320,0.0,-999.0,17,-99.99,,,-99.99,dwt +perl,2013-06-30 13:54:00,
2013-06-30 06:59:00,78.1,28.2,24.83,NW,320,1.0,-999.0,16,-99.99,,,-99.99,dwt +perl,2013-06-30 13:59:00,
2013-06-30 07:04:00,78.5,28.6,24.83,NW,320,1.0,-999.0,16,-99.99,,,-99.99,dwt +perl,2013-06-30 14:04:00,
2013-06-30 07:14:00,79.1,33.3,24.83,NW,320,0.0,-999.0,19,-99.99,,,-99.99,dwt +perl,2013-06-30 14:14:00,
2013-06-30 07:19:00,79.5,33.6,24.83,NW,320,1.0,-999.0,19,-99.99,,,-99.99,dwt +perl,2013-06-30 14:19:00,
2013-06-30 07:24:00,79.7,28.0,24.83,NW,320,1.0,-999.0,15,-99.99,,,-99.99,dwt +perl,2013-06-30 14:24:00,
2013-06-30 07:29:00,79.9,31.2,24.83,NW,320,2.0,-999.0,17,-99.99,,,-99.99,dwt +perl,2013-06-30 14:29:00,
2013-06-30 07:34:00,80.2,32.8,24.83,NW,321,2.0,-999.0,18,-99.99,,,-99.99,dwt +perl,2013-06-30 14:34:00,
2013-06-30 07:39:00,80.4,31.6,24.83,NW,320,0.0,-999.0,17,-99.99,,,-99.99,dwt +perl,2013-06-30 14:39:00,
2013-06-30 07:44:00,80.6,35.8,24.83,NW,320,0.0,-999.0,20,-99.99,,,-99.99,dwt +perl,2013-06-30 14:44:00,
2013-06-30 07:49:00,80.7,33.2,24.83,NW,320,1.0,-999.0,18,-99.99,,,-99.99,dwt +perl,2013-06-30 14:49:00,
2013-06-30 07:54:00,79.5,29.4,24.83,NW,320,0.0,-999.0,16,-99.99,,,-99.99,dwt +perl,2013-06-30 14:54:00,
2013-06-30 07:59:00,78.3,32.6,24.83,NW,320,2.0,-999.0,19,-99.99,,,-99.99,dwt +perl,2013-06-30 14:59:00,
2013-06-30 08:04:00,78.1,32.5,24.83,NW,320,2.0,-999.0,19,-99.99,,,-99.99,dwt +perl,2013-06-30 15:04:00,
2013-06-30 08:09:00,78.1,31.1,24.83,NW,322,1.0,-999.0,18,-99.99,,,-99.99,dwt +perl,2013-06-30 15:09:00,
2013-06-30 08:14:00,78.3,31.3,24.83,NNE,33,3.0,-999.0,18,-99.99,,,-99.99,dwt +perl,2013-06-30 15:14:00,
2013-06-30 08:19:00,78.3,33.9,24.83,NNE,31,2.0,-999.0,20,-99.99,,,-99.99,dwt +perl,2013-06-30 15:19:00,
2013-06-30 08:24:00,78.4,35.2,24.83,NNE,16,0.0,-999.0,21,-99.99,,,-99.99,dwt +perl,2013-06-30 15:24:00,
2013-06-30 08:29:00,79.0,31.9,24.83,NNE,21,3.0,-999.0,18,-99.99,,,-99.99,dwt +perl,2013-06-30 15:29:00,
2013-06-30 08:34:00,78.7,35.5,24.83,NNE,20,0.0,-999.0,21,-99.99,,,-99.99,dwt +perl,2013-06-30 15:34:00,
2013-06-30 08:39:00,78.8,35.5,24.83,NNE,18,0.0,-999.0,21,-99.99,,,-99.99,dwt +perl,2013-06-30 15:39:00,
2013-06-30 08:44:00,79.1,35.8,24.83,NNE,21,0.0,-999.0,21,-99.99,,,-99.99,dwt +perl,2013-06-30 15:44:00,
2013-06-30 08:49:00,78.8,35.5,24.83,NNE,21,3.0,-999.0,21,-99.99,,,-99.99,dwt +perl,2013-06-30 15:49:00,
2013-06-30 08:54:00,78.2,36.2,24.83,North,10,3.0,-999.0,22,-99.99,,,-99.99,dwt +perl,2013-06-30 15:54:00,
2013-06-30 09:04:00,78.0,37.2,24.83,North,359,2.0,-999.0,23,-99.99,,,-99.99,dwt +perl,2013-06-30 16:04:00,
2013-06-30 09:09:00,78.2,35.0,24.83,NNW,327,3.0,-999.0,21,-99.99,,,-99.99,dwt +perl,2013-06-30 16:09:00,
2013-06-30 09:14:00,78.0,37.2,24.83,NW,326,4.0,-999.0,23,-99.99,,,-99.99,dwt +perl,2013-06-30 16:14:00,
2013-06-30 09:19:00,78.2,38.4,24.83,NW,324,1.0,-999.0,24,-99.99,,,-99.99,dwt +perl,2013-06-30 16:19:00,
2013-06-30 09:24:00,78.8,38.9,24.83,NW,324,0.0,-999.0,24,-99.99,,,-99.99,dwt +perl,2013-06-30 16:24:00,
2013-06-30 09:29:00,79.6,40.7,24.83,NW,324,1.0,-999.0,25,-99.99,,,-99.99,dwt +perl,2013-06-30 16:29:00,
2013-06-30 09:34:00,79.5,43.5,24.83,NW,324,0.0,-999.0,28,-99.99,,,-99.99,dwt +perl,2013-06-30 16:34:00,
2013-06-30 09:39:00,79.1,42.2,24.82,NW,324,0.0,-999.0,27,-99.99,,,-99.99,dwt +perl,2013-06-30 16:39:00,
2013-06-30 09:44:00,79.5,43.5,24.83,NW,324,1.0,-999.0,28,-99.99,,,-99.99,dwt +perl,2013-06-30 16:44:00,
2013-06-30 09:49:00,79.8,41.8,24.82,NW,324,0.0,-999.0,26,-99.99,,,-99.99,dwt +perl,2013-06-30 16:49:00,
2013-06-30 09:54:00,80.1,42.1,24.82,NW,324,0.0,-999.0,26,-99.99,,,-99.99,dwt +perl,2013-06-30 16:54:00,
2013-06-30 09:59:00,79.9,41.9,24.82,NW,324,0.0,-999.0,26,-99.99,,,-99.99,dwt +perl,2013-06-30 16:59:00,
2013-06-30 10:04:00,80.0,43.0,24.82,NW,324,0.0,-999.0,27,-99.99,,,-99.99,dwt +perl,2013-06-30 17:04:00,
2013-06-30 10:14:00,80.1,43.1,24.82,NW,324,0.0,-999.0,27,-99.99,,,-99.99,dwt +perl,2013-06-30 17:14:00,
2013-06-30 10:19:00,80.0,42.0,24.82,NW,324,3.0,-999.0,26,-99.99,,,-99.99,dwt +perl,2013-06-30 17:19:00,
2013-06-30 10:24:00,79.2,43.3,24.82,WNW,302,4.0,-999.0,28,-99.99,,,-99.99,dwt +perl,2013-06-30 17:24:00,
2013-06-30 10:29:00,78.4,44.4,24.82,WNW,297,3.0,-999.0,30,-99.99,,,-99.99,dwt +perl,2013-06-30 17:29:00,
2013-06-30 10:34:00,78.3,41.5,24.82,WNW,297,4.0,-999.0,27,-99.99,,,-99.99,dwt +perl,2013-06-30 17:34:00,
2013-06-30 10:39:00,78.2,43.3,24.82,WNW,297,2.0,-999.0,29,-99.99,,,-99.99,dwt +perl,2013-06-30 17:39:00,
2013-06-30 10:44:00,78.5,42.7,24.82,WNW,297,4.0,-999.0,28,-99.99,,,-99.99,dwt +perl,2013-06-30 17:44:00,
2013-06-30 10:49:00,78.6,41.8,24.82,WNW,297,0.0,-999.0,27,-99.99,,,-99.99,dwt +perl,2013-06-30 17:49:00,
2013-06-30 10:54:00,79.4,41.5,24.82,WNW,297,1.0,-999.0,26,-99.99,,,-99.99,dwt +perl,2013-06-30 17:54:00,
2013-06-30 10:59:00,79.9,41.9,24.82,WNW,297,4.0,-999.0,26,-99.99,,,-99.99,dwt +perl,2013-06-30 17:59:00,
2013-06-30 11:09:00,80.6,42.5,24.82,WNW,297,1.0,-999.0,26,-99.99,,,-99.99,dwt +perl,2013-06-30 18:09:00,
2013-06-30 11:14:00,81.2,42.0,24.82,WNW,296,0.0,-999.0,25,-99.99,,,-99.99,dwt +perl,2013-06-30 18:14:00,
2013-06-30 11:19:00,81.6,43.4,24.82,WNW,297,0.0,-999.0,26,-99.99,,,-99.99,dwt +perl,2013-06-30 18:19:00,
2013-06-30 11:24:00,81.8,43.5,24.82,WNW,297,0.0,-999.0,26,-99.99,,,-99.99,dwt +perl,2013-06-30 18:24:00,
2013-06-30 11:29:00,81.8,42.5,24.82,WNW,297,2.0,-999.0,25,-99.99,,,-99.99,dwt +perl,2013-06-30 18:29:00,
2013-06-30 11:34:00,82.2,41.8,24.82,WNW,297,1.0,-999.0,24,-99.99,,,-99.99,dwt +perl,2013-06-30 18:34:00,
2013-06-30 11:39:00,82.4,42.0,24.82,WNW,297,0.0,-999.0,24,-99.99,,,-99.99,dwt +perl,2013-06-30 18:39:00,
2013-06-30 11:44:00,82.7,41.1,24.83,WNW,297,1.0,-999.0,23,-99.99,,,-99.99,dwt +perl,2013-06-30 18:44:00,
2013-06-30 11:49:00,82.9,43.4,24.82,WNW,296,0.0,-999.0,25,-99.99,,,-99.99,dwt +perl,2013-06-30 18:49:00,
2013-06-30 11:54:00,82.7,41.1,24.82,WNW,297,2.0,-999.0,23,-99.99,,,-99.99,dwt +perl,2013-06-30 18:54:00,
2013-06-30 11:59:00,82.5,43.1,24.83,WNW,297,0.0,-999.0,25,-99.99,,,-99.99,dwt +perl,2013-06-30 18:59:00,
2013-06-30 12:04:00,82.9,42.4,24.82,WNW,297,0.0,-999.0,24,-99.99,,,-99.99,dwt +perl,2013-06-30 19:04:00,
2013-06-30 12:09:00,83.6,43.0,24.83,WNW,297,0.0,-999.0,24,-99.99,,,-99.99,dwt +perl,2013-06-30 19:09:00,
2013-06-30 12:14:00,83.9,42.1,24.82,West,272,4.0,-999.0,23,-99.99,,,-99.99,dwt +perl,2013-06-30 19:14:00,
2013-06-30 12:19:00,83.7,41.9,24.82,West,272,2.0,-999.0,23,-99.99,,,-99.99,dwt +perl,2013-06-30 19:19:00,
2013-06-30 12:24:00,84.3,42.4,24.82,West,272,1.0,-999.0,23,-99.99,,,-99.99,dwt +perl,2013-06-30 19:24:00,
2013-06-30 12:29:00,85.3,43.3,24.82,West,262,1.0,-999.0,23,-99.99,,,-99.99,dwt +perl,2013-06-30 19:29:00,
2013-06-30 12:34:00,85.9,42.6,24.82,West,262,0.0,-999.0,22,-99.99,,,-99.99,dwt +perl,2013-06-30 19:34:00,
2013-06-30 12:39:00,85.6,43.5,24.82,West,262,2.0,-999.0,23,-99.99,,,-99.99,dwt +perl,2013-06-30 19:39:00,
2013-06-30 12:44:00,85.4,43.3,24.82,West,262,5.0,-999.0,23,-99.99,,,-99.99,dwt +perl,2013-06-30 19:44:00,
2013-06-30 12:49:00,83.9,44.3,24.82,WSW,247,3.0,-999.0,25,-99.99,,,-99.99,dwt +perl,2013-06-30 19:49:00,
2013-06-30 12:54:00,83.7,41.9,24.82,WSW,243,3.0,-999.0,23,-99.99,,,-99.99,dwt +perl,2013-06-30 19:54:00,
2013-06-30 12:59:00,82.3,40.8,24.81,WNW,286,3.0,-999.0,23,-99.99,,,-99.99,dwt +perl,2013-06-30 19:59:00,
2013-06-30 13:04:00,82.4,44.0,24.81,West,276,6.0,-999.0,26,-99.99,,,-99.99,dwt +perl,2013-06-30 20:04:00,
2013-06-30 13:14:00,81.7,43.5,24.81,WSW,240,9.0,-999.0,26,-99.99,,,-99.99,dwt +perl,2013-06-30 20:14:00,
2013-06-30 13:19:00,81.5,42.3,24.81,West,266,6.0,-999.0,25,-99.99,,,-99.99,dwt +perl,2013-06-30 20:19:00,
2013-06-30 13:24:00,81.2,44.0,24.81,WSW,247,5.0,-999.0,27,-99.99,,,-99.99,dwt +perl,2013-06-30 20:24:00,
2013-06-30 13:29:00,81.5,43.3,24.81,SW,221,5.0,-999.0,26,-99.99,,,-99.99,dwt +perl,2013-06-30 20:29:00,
2013-06-30 13:34:00,81.6,41.3,24.82,West,277,7.0,-999.0,24,-99.99,,,-99.99,dwt +perl,2013-06-30 20:34:00,
2013-06-30 13:39:00,80.8,42.7,24.81,WNW,290,7.0,-999.0,26,-99.99,,,-99.99,dwt +perl,2013-06-30 20:39:00,
2013-06-30 13:44:00,80.4,43.3,24.81,WSW,249,7.0,-999.0,27,-99.99,,,-99.99,dwt +perl,2013-06-30 20:44:00,
2013-06-30 13:49:00,81.0,44.8,24.81,SW,230,8.0,-999.0,28,-99.99,,,-99.99,dwt +perl,2013-06-30 20:49:00,
2013-06-30 13:54:00,81.2,44.0,24.81,West,280,6.0,-999.0,27,-99.99,,,-99.99,dwt +perl,2013-06-30 20:54:00,
2013-06-30 13:59:00,81.1,41.9,24.81,West,261,6.0,-999.0,25,-99.99,,,-99.99,dwt +perl,2013-06-30 20:59:00,
2013-06-30 14:04:00,80.7,42.6,24.81,West,276,6.0,-999.0,26,-99.99,,,-99.99,dwt +perl,2013-06-30 21:04:00,
2013-06-30 14:05:00,81.5,42.3,24.81,SW,231,8.0,-999.0,25,-99.99,,,-99.99,dwt +perl,2013-06-30 21:05:00,
2013-06-30 14:14:00,81.5,42.3,24.81,SW,231,8.0,-999.0,25,-99.99,,,-99.99,dwt +perl,2013-06-30 21:14:00,
2013-06-30 14:24:00,81.4,44.2,24.82,WSW,248,7.0,-999.0,27,-99.99,,,-99.99,dwt +perl,2013-06-30 21:24:00,
2013-06-30 14:29:00,81.2,44.0,24.81,WSW,239,9.0,-999.0,27,-99.99,,,-99.99,dwt +perl,2013-06-30 21:29:00,
2013-06-30 14:34:00,81.0,43.8,24.81,SW,234,2.0,-999.0,27,-99.99,,,-99.99,dwt +perl,2013-06-30 21:34:00,
2013-06-30 14:39:00,80.9,41.8,24.81,West,263,4.0,-999.0,25,-99.99,,,-99.99,dwt +perl,2013-06-30 21:39:00,
2013-06-30 14:44:00,80.8,42.7,24.81,WSW,239,8.0,-999.0,26,-99.99,,,-99.99,dwt +perl,2013-06-30 21:44:00,
2013-06-30 14:49:00,80.2,41.2,24.81,WSW,243,9.0,-999.0,25,-99.99,,,-99.99,dwt +perl,2013-06-30 21:49:00,
2013-06-30 14:54:00,79.9,40.9,24.81,WSW,237,13.0,-999.0,25,-99.99,,,-99.99,dwt +perl,2013-06-30 21:54:00,
2013-06-30 14:59:00,79.9,40.9,24.81,West,268,9.0,-999.0,25,-99.99,,,-99.99,dwt +perl,2013-06-30 21:59:00,
2013-06-30 15:09:00,79.3,38.3,24.81,West,262,8.0,-999.0,23,-99.99,,,-99.99,dwt +perl,2013-06-30 22:09:00,
2013-06-30 15:14:00,79.4,40.5,24.81,West,260,9.0,-999.0,25,-99.99,,,-99.99,dwt +perl,2013-06-30 22:14:00,
2013-06-30 15:19:00,79.9,41.9,24.81,West,260,7.0,-999.0,26,-99.99,,,-99.99,dwt +perl,2013-06-30 22:19:00,
2013-06-30 15:24:00,79.8,40.8,24.81,WSW,253,6.0,-999.0,25,-99.99,,,-99.99,dwt +perl,2013-06-30 22:24:00,
2013-06-30 15:29:00,79.6,41.7,24.81,SW,234,8.0,-999.0,26,-99.99,,,-99.99,dwt +perl,2013-06-30 22:29:00,
2013-06-30 15:34:00,79.4,39.4,24.81,West,264,5.0,-999.0,24,-99.99,,,-99.99,dwt +perl,2013-06-30 22:34:00,
2013-06-30 15:39:00,79.1,39.2,24.81,West,274,5.0,-999.0,24,-99.99,,,-99.99,dwt +perl,2013-06-30 22:39:00,
2013-06-30 15:44:00,79.3,40.4,24.81,WSW,256,6.0,-999.0,25,-99.99,,,-99.99,dwt +perl,2013-06-30 22:44:00,
2013-06-30 15:49:00,79.6,42.7,24.81,WSW,250,7.0,-999.0,27,-99.99,,,-99.99,dwt +perl,2013-06-30 22:49:00,
2013-06-30 15:54:00,79.2,39.3,24.81,WNW,295,11.0,-999.0,24,-99.99,,,-99.99,dwt +perl,2013-06-30 22:54:00,
2013-06-30 15:59:00,78.7,39.9,24.80,WSW,255,7.0,-999.0,25,-99.99,,,-99.99,dwt +perl,2013-06-30 22:59:00,
2013-06-30 16:04:00,78.4,38.6,24.81,West,272,6.0,-999.0,24,-99.99,,,-99.99,dwt +perl,2013-06-30 23:04:00,
2013-06-30 16:09:00,79.3,41.4,24.80,WSW,247,10.0,-999.0,26,-99.99,,,-99.99,dwt +perl,2013-06-30 23:09:00,
2013-06-30 16:14:00,78.5,38.7,24.80,West,266,8.0,-999.0,24,-99.99,,,-99.99,dwt +perl,2013-06-30 23:14:00,
2013-06-30 16:19:00,78.1,39.4,24.80,WNW,287,6.0,-999.0,25,-99.99,,,-99.99,dwt +perl,2013-06-30 23:19:00,
2013-06-30 16:24:00,78.1,40.4,24.80,SW,232,9.0,-999.0,26,-99.99,,,-99.99,dwt +perl,2013-06-30 23:24:00,
2013-06-30 16:29:00,78.6,39.8,24.80,WNW,291,11.0,-999.0,25,-99.99,,,-99.99,dwt +perl,2013-06-30 23:29:00,
2013-06-30 16:34:00,77.9,37.1,24.80,West,266,7.0,-999.0,23,-99.99,,,-99.99,dwt +perl,2013-06-30 23:34:00,
2013-06-30 16:39:00,78.2,39.5,24.80,WSW,241,8.0,-999.0,25,-99.99,,,-99.99,dwt +perl,2013-06-30 23:39:00,
2013-06-30 16:44:00,77.8,38.1,24.80,WSW,249,6.0,-999.0,24,-99.99,,,-99.99,dwt +perl,2013-06-30 23:44:00,
2013-06-30 16:49:00,77.6,39.0,24.79,West,259,11.0,-999.0,25,-99.99,,,-99.99,dwt +perl,2013-06-30 23:49:00,
2013-06-30 16:54:00,77.5,36.8,24.79,WNW,287,11.0,-999.0,23,-99.99,,,-99.99,dwt +perl,2013-06-30 23:54:00,
2013-06-30 16:59:00,77.1,37.5,24.79,West,264,9.0,-999.0,24,-99.99,,,-99.99,dwt +perl,2013-06-30 23:59:00,
2013-06-30 17:04:00,76.8,38.3,24.79,WSW,238,7.0,-999.0,25,-99.99,,,-99.99,dwt +perl,2013-07-01 00:04:00,
2013-06-30 17:14:00,76.8,39.3,24.79,West,263,9.0,-999.0,26,-99.99,,,-99.99,dwt +perl,2013-07-01 00:14:00,
2013-06-30 17:19:00,76.6,39.1,24.79,WSW,246,9.0,-999.0,26,-99.99,,,-99.99,dwt +perl,2013-07-01 00:19:00,
2013-06-30 17:24:00,76.7,39.2,24.79,WSW,240,11.0,-999.0,26,-99.99,,,-99.99,dwt +perl,2013-07-01 00:24:00,
2013-06-30 17:29:00,76.3,37.9,24.79,West,259,8.0,-999.0,25,-99.99,,,-99.99,dwt +perl,2013-07-01 00:29:00,
2013-06-30 17:34:00,75.8,39.4,24.79,WSW,239,13.0,-999.0,27,-99.99,,,-99.99,dwt +perl,2013-07-01 00:34:00,
2013-06-30 17:39:00,75.8,39.4,24.79,WSW,252,7.0,-999.0,27,-99.99,,,-99.99,dwt +perl,2013-07-01 00:39:00,
2013-06-30 17:44:00,75.5,39.2,24.79,SW,234,9.0,-999.0,27,-99.99,,,-99.99,dwt +perl,2013-07-01 00:44:00,
2013-06-30 17:49:00,75.5,39.2,24.79,WSW,250,7.0,-999.0,27,-99.99,,,-99.99,dwt +perl,2013-07-01 00:49:00,
2013-06-30 17:54:00,75.4,38.1,24.79,WSW,255,7.0,-999.0,26,-99.99,,,-99.99,dwt +perl,2013-07-01 00:54:00,
2013-06-30 17:59:00,75.1,36.9,24.78,WSW,246,7.0,-999.0,25,-99.99,,,-99.99,dwt +perl,2013-07-01 00:59:00,
2013-06-30 18:04:00,75.2,38.9,24.79,WSW,247,8.0,-999.0,27,-99.99,,,-99.99,dwt +perl,2013-07-01 01:04:00,
2013-06-30 18:09:00,75.1,38.8,24.78,WSW,250,5.0,-999.0,27,-99.99,,,-99.99,dwt +perl,2013-07-01 01:09:00,
2013-06-30 18:14:00,74.8,38.6,24.78,WSW,247,7.0,-999.0,27,-99.99,,,-99.99,dwt +perl,2013-07-01 01:14:00,
2013-06-30 18:19:00,74.6,39.3,24.78,WSW,243,7.0,-999.0,28,-99.99,,,-99.99,dwt +perl,2013-07-01 01:19:00,
2013-06-30 18:24:00,74.4,40.0,24.78,WSW,243,5.0,-999.0,29,-99.99,,,-99.99,dwt +perl,2013-07-01 01:24:00,
2013-06-30 18:29:00,74.6,41.1,24.78,WSW,243,3.0,-999.0,30,-99.99,,,-99.99,dwt +perl,2013-07-01 01:29:00,
2013-06-30 18:34:00,74.7,40.3,24.78,WSW,242,3.0,-999.0,29,-99.99,,,-99.99,dwt +perl,2013-07-01 01:34:00,
2013-06-30 18:39:00,74.7,40.3,24.78,WSW,243,3.0,-999.0,29,-99.99,,,-99.99,dwt +perl,2013-07-01 01:39:00,
2013-06-30 18:44:00,74.6,39.3,24.78,WSW,243,3.0,-999.0,28,-99.99,,,-99.99,dwt +perl,2013-07-01 01:44:00,
2013-06-30 18:49:00,74.4,40.9,24.78,WSW,243,5.0,-999.0,30,-99.99,,,-99.99,dwt +perl,2013-07-01 01:49:00,
2013-06-30 18:54:00,74.2,40.8,24.78,WSW,242,3.0,-999.0,30,-99.99,,,-99.99,dwt +perl,2013-07-01 01:54:00,
2013-06-30 18:59:00,73.9,41.3,24.78,WSW,243,4.0,-999.0,31,-99.99,,,-99.99,dwt +perl,2013-07-01 01:59:00,
2013-06-30 19:04:00,73.7,40.3,24.78,WSW,243,0.0,-999.0,30,-99.99,,,-99.99,dwt +perl,2013-07-01 02:04:00,
2013-06-30 19:09:00,74.1,40.7,24.78,WSW,242,1.0,-999.0,30,-99.99,,,-99.99,dwt +perl,2013-07-01 02:09:00,
2013-06-30 19:14:00,75.4,40.0,24.78,WSW,243,0.0,-999.0,28,-99.99,,,-99.99,dwt +perl,2013-07-01 02:14:00,
2013-06-30 19:19:00,76.9,40.3,24.78,WSW,243,0.0,-999.0,27,-99.99,,,-99.99,dwt +perl,2013-07-01 02:19:00,
2013-06-30 19:24:00,78.0,39.3,24.78,WSW,243,0.0,-999.0,25,-99.99,,,-99.99,dwt +perl,2013-07-01 02:24:00,
2013-06-30 19:29:00,78.8,40.0,24.78,WSW,242,0.0,-999.0,25,-99.99,,,-99.99,dwt +perl,2013-07-01 02:29:00,
2013-06-30 19:34:00,79.2,40.3,24.78,WSW,243,0.0,-999.0,25,-99.99,,,-99.99,dwt +perl,2013-07-01 02:34:00,
2013-06-30 19:39:00,79.2,40.3,24.78,WSW,243,0.0,-999.0,25,-99.99,,,-99.99,dwt +perl,2013-07-01 02:39:00,
2013-06-30 19:44:00,79.3,40.4,24.78,WSW,243,0.0,-999.0,25,-99.99,,,-99.99,dwt +perl,2013-07-01 02:44:00,
2013-06-30 19:49:00,79.2,39.3,24.78,WSW,243,0.0,-999.0,24,-99.99,,,-99.99,dwt +perl,2013-07-01 02:49:00,
2013-06-30 19:54:00,79.3,39.4,24.78,WSW,243,1.0,-999.0,24,-99.99,,,-99.99,dwt +perl,2013-07-01 02:54:00,
2013-06-30 19:59:00,79.1,39.2,24.78,WSW,243,1.0,-999.0,24,-99.99,,,-99.99,dwt +perl,2013-07-01 02:59:00,
2013-06-30 20:04:00,79.1,39.2,24.78,WSW,242,3.0,-999.0,24,-99.99,,,-99.99,dwt +perl,2013-07-01 03:04:00,
2013-06-30 20:14:00,78.9,37.9,24.78,WSW,243,2.0,-999.0,23,-99.99,,,-99.99,dwt +perl,2013-07-01 03:14:00,
2013-06-30 20:19:00,78.8,38.9,24.78,WSW,243,0.0,-999.0,24,-99.99,,,-99.99,dwt +perl,2013-07-01 03:19:00,
2013-06-30 20:24:00,78.7,37.8,24.78,WSW,243,1.0,-999.0,23,-99.99,,,-99.99,dwt +perl,2013-07-01 03:24:00,
2013-06-30 20:29:00,78.6,37.7,24.78,WSW,243,2.0,-999.0,23,-99.99,,,-99.99,dwt +perl,2013-07-01 03:29:00,
2013-06-30 20:34:00,78.5,37.6,24.78,WSW,243,2.0,-999.0,23,-99.99,,,-99.99,dwt +perl,2013-07-01 03:34:00,
2013-06-30 20:39:00,78.3,37.4,24.78,WSW,242,1.0,-999.0,23,-99.99,,,-99.99,dwt +perl,2013-07-01 03:39:00,
2013-06-30 20:44:00,78.2,37.3,24.78,WSW,243,1.0,-999.0,23,-99.99,,,-99.99,dwt +perl,2013-07-01 03:44:00,
2013-06-30 20:49:00,78.2,37.3,24.78,WSW,243,0.0,-999.0,23,-99.99,,,-99.99,dwt +perl,2013-07-01 03:49:00,
2013-06-30 20:54:00,78.1,37.3,24.78,WSW,243,0.0,-999.0,23,-99.99,,,-99.99,dwt +perl,2013-07-01 03:54:00,
2013-06-30 20:59:00,78.0,37.2,24.78,WSW,243,0.0,-999.0,23,-99.99,,,-99.99,dwt +perl,2013-07-01 03:59:00,
2013-06-30 21:04:00,78.0,37.2,24.78,WSW,242,0.0,-999.0,23,-99.99,,,-99.99,dwt +perl,2013-07-01 04:04:00,
2013-06-30 21:09:00,78.0,37.2,24.78,WSW,243,0.0,-999.0,23,-99.99,,,-99.99,dwt +perl,2013-07-01 04:09:00,
2013-06-30 21:14:00,78.0,38.3,24.78,WSW,242,0.0,-999.0,24,-99.99,,,-99.99,dwt +perl,2013-07-01 04:14:00,
2013-06-30 21:19:00,78.3,37.4,24.78,WSW,243,0.0,-999.0,23,-99.99,,,-99.99,dwt +perl,2013-07-01 04:19:00,
2013-06-30 21:24:00,78.4,37.5,24.78,WSW,243,0.0,-999.0,23,-99.99,,,-99.99,dwt +perl,2013-07-01 04:24:00,
2013-06-30 21:29:00,78.5,37.6,24.78,WSW,242,0.0,-999.0,23,-99.99,,,-99.99,dwt +perl,2013-07-01 04:29:00,
2013-06-30 21:34:00,78.8,37.8,24.78,WSW,243,0.0,-999.0,23,-99.99,,,-99.99,dwt +perl,2013-07-01 04:34:00,
2013-06-30 21:39:00,79.1,38.1,24.78,WSW,243,3.0,-999.0,23,-99.99,,,-99.99,dwt +perl,2013-07-01 04:39:00,
2013-06-30 21:44:00,79.4,37.2,24.78,WSW,243,0.0,-999.0,22,-99.99,,,-99.99,dwt +perl,2013-07-01 04:44:00,
2013-06-30 21:49:00,79.1,34.6,24.78,WSW,243,4.0,-999.0,20,-99.99,,,-99.99,dwt +perl,2013-07-01 04:49:00,
2013-06-30 21:54:00,78.8,35.5,24.78,WSW,243,3.0,-999.0,21,-99.99,,,-99.99,dwt +perl,2013-07-01 04:54:00,
2013-06-30 21:59:00,78.9,33.1,24.78,WSW,243,4.0,-999.0,19,-99.99,,,-99.99,dwt +perl,2013-07-01 04:59:00,
2013-06-30 22:04:00,78.9,30.4,24.78,WSW,245,4.0,-999.0,17,-99.99,,,-99.99,dwt +perl,2013-07-01 05:04:00,
2013-06-30 22:09:00,78.7,31.6,24.78,West,266,2.0,-999.0,18,-99.99,,,-99.99,dwt +perl,2013-07-01 05:09:00,
2013-06-30 22:14:00,79.0,31.9,24.79,West,266,3.0,-999.0,18,-99.99,,,-99.99,dwt +perl,2013-07-01 05:14:00,
2013-06-30 22:19:00,79.1,33.3,24.79,West,266,0.0,-999.0,19,-99.99,,,-99.99,dwt +perl,2013-07-01 05:19:00,
2013-06-30 22:24:00,79.0,34.5,24.79,West,266,0.0,-999.0,20,-99.99,,,-99.99,dwt +perl,2013-07-01 05:24:00,
2013-06-30 22:29:00,79.0,36.9,24.79,West,266,0.0,-999.0,22,-99.99,,,-99.99,dwt +perl,2013-07-01 05:29:00,
2013-06-30 22:34:00,79.1,37.0,24.79,West,266,2.0,-999.0,22,-99.99,,,-99.99,dwt +perl,2013-07-01 05:34:00,
2013-06-30 22:39:00,78.9,35.6,24.79,West,266,1.0,-999.0,21,-99.99,,,-99.99,dwt +perl,2013-07-01 05:39:00,
2013-06-30 22:44:00,78.6,35.4,24.79,West,266,1.0,-999.0,21,-99.99,,,-99.99,dwt +perl,2013-07-01 05:44:00,
2013-06-30 22:49:00,78.5,36.5,24.79,West,266,0.0,-999.0,22,-99.99,,,-99.99,dwt +perl,2013-07-01 05:49:00,
2013-06-30 22:54:00,78.7,36.6,24.78,West,266,1.0,-999.0,22,-99.99,,,-99.99,dwt +perl,2013-07-01 05:54:00,
2013-06-30 22:59:00,79.0,35.7,24.79,West,266,3.0,-999.0,21,-99.99,,,-99.99,dwt +perl,2013-07-01 05:59:00,
2013-06-30 23:04:00,79.3,36.0,24.79,West,266,1.0,-999.0,21,-99.99,,,-99.99,dwt +perl,2013-07-01 06:04:00,
2013-06-30 23:09:00,79.4,36.0,24.79,West,266,0.0,-999.0,21,-99.99,,,-99.99,dwt +perl,2013-07-01 06:09:00,
2013-06-30 23:14:00,79.3,36.0,24.79,West,266,0.0,-999.0,21,-99.99,,,-99.99,dwt +perl,2013-07-01 06:14:00,
2013-06-30 23:19:00,79.1,35.8,24.79,West,266,0.0,-999.0,21,-99.99,,,-99.99,dwt +perl,2013-07-01 06:19:00,
2013-06-30 23:24:00,78.9,34.4,24.79,West,266,3.0,-999.0,20,-99.99,,,-99.99,dwt +perl,2013-07-01 06:24:00,
2013-06-30 23:29:00,78.4,32.7,24.79,ENE,67,4.0,-999.0,19,-99.99,,,-99.99,dwt +perl,2013-07-01 06:29:00,
2013-06-30 23:34:00,78.2,32.5,24.79,ENE,67,4.0,-999.0,19,-99.99,,,-99.99,dwt +perl,2013-07-01 06:34:00,
2013-06-30 23:39:00,78.1,31.1,24.79,ENE,67,3.0,-999.0,18,-99.99,,,-99.99,dwt +perl,2013-07-01 06:39:00,
2013-06-30 23:44:00,77.9,29.6,24.79,ENE,67,3.0,-999.0,17,-99.99,,,-99.99,dwt +perl,2013-07-01 06:44:00,
2013-06-30 23:49:00,77.9,31.0,24.79,ENE,67,1.0,-999.0,18,-99.99,,,-99.99,dwt +perl,2013-07-01 06:49:00,
2013-06-30 23:54:00,77.9,32.3,24.79,ENE,67,2.0,-999.0,19,-99.99,,,-99.99,dwt +perl,2013-07-01 06:54:00,
2013-06-30 23:59:00,77.7,32.1,24.79,ENE,67,1.0,-999.0,19,-99.99,,,-99.99,dwt +perl,2013-07-01 06:59:00,